Time,TemperatureF,DewpointF,PressureIn,WindDirection,WindDirectionDegrees,WindSpeedMPH,WindSpeedGustMPH,Humidity,HourlyPrecipIn,Conditions,Clouds,dailyrainin,SoftwareType,DateUTC
2013-09-01 00:00:00,84.2,69.3,29.82,SSE,157,0.0,8.0,61,0.00,,SKC,0.00,VWS V14.01,2013-09-01 05:00:00,
2013-09-01 00:08:00,81.5,69.5,29.82,SSE,158,0.0,1.0,67,0.00,,SKC,0.00,VWS V14.01,2013-09-01 05:08:00,
2013-09-01 00:10:00,81.6,69.6,29.82,SSE,158,0.0,4.0,67,0.00,,SKC,0.00,VWS V14.01,2013-09-01 05:10:00,
2013-09-01 00:13:00,81.4,69.8,29.82,SSE,158,0.0,1.0,68,0.00,,SKC,0.00,VWS V14.01,2013-09-01 05:13:00,
2013-09-01 00:20:00,81.3,69.7,29.82,SSE,158,0.0,4.0,68,0.00,,SKC,0.00,VWS V14.01,2013-09-01 05:20:00,
2013-09-01 00:23:00,81.0,69.9,29.83,SSE,158,0.0,1.0,69,0.00,,SKC,0.00,VWS V14.01,2013-09-01 05:23:00,
2013-09-01 00:28:00,80.9,69.8,29.82,SSE,158,0.0,0.0,69,0.00,,SKC,0.00,VWS V14.01,2013-09-01 05:28:00,
2013-09-01 00:30:00,81.0,69.9,29.83,SSE,158,0.0,1.0,69,0.00,,SKC,0.00,VWS V14.01,2013-09-01 05:30:00,
2013-09-01 00:33:00,80.7,69.6,29.82,SSE,158,0.0,3.0,69,0.00,,SKC,0.00,VWS V14.01,2013-09-01 05:33:00,
2013-09-01 00:38:00,80.6,69.9,29.82,SSE,158,0.0,1.0,70,0.00,,SKC,0.00,VWS V14.01,2013-09-01 05:38:00,
2013-09-01 00:40:00,80.7,70.0,29.82,SSE,158,0.0,3.0,70,0.00,,SKC,0.00,VWS V14.01,2013-09-01 05:40:00,
2013-09-01 00:43:00,80.4,69.7,29.82,SSE,158,0.0,1.0,70,0.00,,SKC,0.00,VWS V14.01,2013-09-01 05:43:00,
2013-09-01 00:48:00,80.3,69.6,29.82,SSE,158,0.0,1.0,70,0.00,,SKC,0.00,VWS V14.01,2013-09-01 05:48:00,
2013-09-01 00:50:00,80.3,69.6,29.82,SSE,158,0.0,1.0,70,0.00,,SKC,0.00,VWS V14.01,2013-09-01 05:50:00,
2013-09-01 00:53:00,80.1,69.9,29.82,SSE,158,0.0,1.0,71,0.00,,SKC,0.00,VWS V14.01,2013-09-01 05:53:00,
2013-09-01 00:58:00,80.0,69.8,29.82,SSE,158,0.0,0.0,71,0.00,,SKC,0.00,VWS V14.01,2013-09-01 05:58:00,
2013-09-01 01:00:00,80.0,69.8,29.82,SSE,158,0.0,1.0,71,0.00,,SKC,0.00,VWS V14.01,2013-09-01 06:00:00,
2013-09-01 01:03:00,79.8,69.6,29.82,SSE,157,0.0,0.0,71,0.00,,SKC,0.00,VWS V14.01,2013-09-01 06:03:00,
2013-09-01 01:08:00,79.6,69.8,29.82,SSE,158,0.0,0.0,72,0.00,,SKC,0.00,VWS V14.01,2013-09-01 06:08:00,
2013-09-01 01:10:00,79.7,69.9,29.82,SSE,158,0.0,0.0,72,0.00,,SKC,0.00,VWS V14.01,2013-09-01 06:10:00,
2013-09-01 01:13:00,79.4,69.6,29.82,SSE,158,0.0,0.0,72,0.00,,SKC,0.00,VWS V14.01,2013-09-01 06:13:00,
2013-09-01 01:18:00,79.2,69.4,29.83,SSE,158,0.0,0.0,72,0.00,,SKC,0.00,VWS V14.01,2013-09-01 06:18:00,
2013-09-01 01:20:00,79.3,69.5,29.82,SSE,158,0.0,0.0,72,0.00,,SKC,0.00,VWS V14.01,2013-09-01 06:20:00,
2013-09-01 01:23:00,79.0,69.6,29.83,SSE,157,0.0,0.0,73,0.00,,SKC,0.00,VWS V14.01,2013-09-01 06:23:00,
2013-09-01 01:28:00,78.9,69.5,29.82,SSE,158,0.0,0.0,73,0.00,,SKC,0.00,VWS V14.01,2013-09-01 06:28:00,
2013-09-01 01:30:00,79.0,69.6,29.83,SSE,158,0.0,0.0,73,0.00,,SKC,0.00,VWS V14.01,2013-09-01 06:30:00,
2013-09-01 01:33:00,78.8,69.4,29.82,SSE,158,0.0,0.0,73,0.00,,SKC,0.00,VWS V14.01,2013-09-01 06:33:00,
2013-09-01 01:38:00,78.7,69.7,29.83,SSE,158,0.0,0.0,74,0.00,,SKC,0.00,VWS V14.01,2013-09-01 06:38:00,
2013-09-01 01:40:00,78.8,69.4,29.82,SSE,158,0.0,0.0,73,0.00,,SKC,0.00,VWS V14.01,2013-09-01 06:40:00,
2013-09-01 01:43:00,78.6,69.6,29.83,SSE,158,0.0,1.0,74,0.00,,SKC,0.00,VWS V14.01,2013-09-01 06:43:00,
2013-09-01 01:48:00,78.5,69.5,29.83,SSE,158,0.0,0.0,74,0.00,,SKC,0.00,VWS V14.01,2013-09-01 06:48:00,
2013-09-01 01:50:00,78.6,69.6,29.83,SSE,158,0.0,1.0,74,0.00,,SKC,0.00,VWS V14.01,2013-09-01 06:50:00,
2013-09-01 01:53:00,78.5,69.5,29.83,SSE,158,0.0,0.0,74,0.00,,SKC,0.00,VWS V14.01,2013-09-01 06:53:00,
2013-09-01 01:58:00,78.3,69.7,29.83,SSE,158,0.0,0.0,75,0.00,,SKC,0.00,VWS V14.01,2013-09-01 06:58:00,
2013-09-01 02:00:00,78.4,69.4,29.83,SSE,158,0.0,0.0,74,0.00,,SKC,0.00,VWS V14.01,2013-09-01 07:00:00,
2013-09-01 02:03:00,78.2,69.6,29.83,SSE,158,0.0,0.0,75,0.00,,SKC,0.00,VWS V14.01,2013-09-01 07:03:00,
2013-09-01 02:08:00,78.1,69.5,29.83,SSE,158,0.0,0.0,75,0.00,,SKC,0.00,VWS V14.01,2013-09-01 07:08:00,
2013-09-01 02:10:00,78.2,69.6,29.83,SSE,158,0.0,0.0,75,0.00,,SKC,0.00,VWS V14.01,2013-09-01 07:10:00,
2013-09-01 02:13:00,78.0,69.8,29.83,SSE,158,0.0,0.0,76,0.00,,SKC,0.00,VWS V14.01,2013-09-01 07:13:00,
2013-09-01 02:18:00,77.9,69.7,29.83,SSE,157,0.0,1.0,76,0.00,,SKC,0.00,VWS V14.01,2013-09-01 07:18:00,
2013-09-01 02:20:00,78.0,69.8,29.83,SSE,158,0.0,0.0,76,0.00,,SKC,0.00,VWS V14.01,2013-09-01 07:20:00,
2013-09-01 02:23:00,77.8,70.0,29.83,SSE,158,0.0,1.0,77,0.00,,SKC,0.00,VWS V14.01,2013-09-01 07:23:00,
2013-09-01 02:28:00,77.7,69.9,29.83,SSE,157,0.0,0.0,77,0.00,,SKC,0.00,VWS V14.01,2013-09-01 07:28:00,
2013-09-01 02:30:00,77.8,70.0,29.83,SSE,158,0.0,1.0,77,0.00,,SKC,0.00,VWS V14.01,2013-09-01 07:30:00,
2013-09-01 02:33:00,77.6,69.8,29.83,SSE,158,0.0,0.0,77,0.00,,SKC,0.00,VWS V14.01,2013-09-01 07:33:00,
2013-09-01 02:38:00,77.5,70.1,29.83,SSE,158,0.0,0.0,78,0.00,,SKC,0.00,VWS V14.01,2013-09-01 07:38:00,
2013-09-01 02:40:00,77.6,69.8,29.84,SSE,158,0.0,0.0,77,0.00,,SKC,0.00,VWS V14.01,2013-09-01 07:40:00,
2013-09-01 02:43:00,77.4,70.0,29.83,SSE,158,0.0,0.0,78,0.00,,SKC,0.00,VWS V14.01,2013-09-01 07:43:00,
2013-09-01 02:48:00,77.2,69.8,29.83,SSE,158,0.0,0.0,78,0.00,,SKC,0.00,VWS V14.01,2013-09-01 07:48:00,
2013-09-01 02:50:00,77.3,69.9,29.84,SSE,157,0.0,0.0,78,0.00,,SKC,0.00,VWS V14.01,2013-09-01 07:50:00,
2013-09-01 02:53:00,77.1,70.1,29.83,SSE,158,0.0,0.0,79,0.00,,SKC,0.00,VWS V14.01,2013-09-01 07:53:00,
2013-09-01 02:58:00,77.0,70.0,29.83,SSE,158,0.0,0.0,79,0.00,,SKC,0.00,VWS V14.01,2013-09-01 07:58:00,
2013-09-01 03:00:00,77.0,70.0,29.83,SSE,158,0.0,0.0,79,0.00,,SKC,0.00,VWS V14.01,2013-09-01 08:00:00,
2013-09-01 03:03:00,76.9,69.9,29.83,SSE,157,0.0,0.0,79,0.00,,SKC,0.00,VWS V14.01,2013-09-01 08:03:00,
2013-09-01 03:08:00,76.8,70.2,29.83,SSE,158,0.0,0.0,80,0.00,,SKC,0.00,VWS V14.01,2013-09-01 08:08:00,
2013-09-01 03:10:00,76.8,70.2,29.83,SSE,158,0.0,0.0,80,0.00,,SKC,0.00,VWS V14.01,2013-09-01 08:10:00,
2013-09-01 03:13:00,76.7,70.1,29.83,SSE,157,0.0,0.0,80,0.00,,SKC,0.00,VWS V14.01,2013-09-01 08:13:00,
2013-09-01 03:18:00,76.6,70.3,29.83,SSE,158,0.0,0.0,81,0.00,,SKC,0.00,VWS V14.01,2013-09-01 08:18:00,
2013-09-01 03:20:00,76.6,70.0,29.83,SSE,158,0.0,0.0,80,0.00,,SKC,0.00,VWS V14.01,2013-09-01 08:20:00,
2013-09-01 03:23:00,76.5,70.2,29.83,SSE,158,0.0,0.0,81,0.00,,SKC,0.00,VWS V14.01,2013-09-01 08:23:00,
2013-09-01 03:28:00,76.4,70.1,29.83,SSE,157,0.0,0.0,81,0.00,,SKC,0.00,VWS V14.01,2013-09-01 08:28:00,
2013-09-01 03:30:00,76.4,70.1,29.83,SSE,158,0.0,0.0,81,0.00,,SKC,0.00,VWS V14.01,2013-09-01 08:30:00,
2013-09-01 03:33:00,76.4,70.1,29.84,SSE,158,0.0,0.0,81,0.00,,SKC,0.00,VWS V14.01,2013-09-01 08:33:00,
2013-09-01 03:38:00,76.3,70.1,29.84,SSE,158,0.0,0.0,81,0.00,,SKC,0.00,VWS V14.01,2013-09-01 08:38:00,
2013-09-01 03:40:00,76.3,70.1,29.84,SSE,158,0.0,0.0,81,0.00,,SKC,0.00,VWS V14.01,2013-09-01 08:40:00,
2013-09-01 03:43:00,76.2,70.3,29.84,SSE,158,0.0,0.0,82,0.00,,SKC,0.00,VWS V14.01,2013-09-01 08:43:00,
2013-09-01 03:48:00,76.1,70.2,29.84,SSE,158,0.0,0.0,82,0.00,,SKC,0.00,VWS V14.01,2013-09-01 08:48:00,
2013-09-01 03:50:00,76.2,70.3,29.84,SSE,157,0.0,0.0,82,0.00,,SKC,0.00,VWS V14.01,2013-09-01 08:50:00,
2013-09-01 03:53:00,76.1,70.2,29.84,SSE,158,0.0,0.0,82,0.00,,SKC,0.00,VWS V14.01,2013-09-01 08:53:00,
2013-09-01 03:58:00,76.0,70.1,29.84,SSE,158,0.0,0.0,82,0.00,,SKC,0.00,VWS V14.01,2013-09-01 08:58:00,
2013-09-01 04:00:00,76.0,70.1,29.84,SSE,157,0.0,0.0,82,0.00,,SKC,0.00,VWS V14.01,2013-09-01 09:00:00,
2013-09-01 04:03:00,75.9,70.4,29.84,SSE,158,0.0,0.0,83,0.00,,SKC,0.00,VWS V14.01,2013-09-01 09:03:00,
2013-09-01 04:08:00,75.8,70.3,29.84,SSE,158,0.0,0.0,83,0.00,,SKC,0.00,VWS V14.01,2013-09-01 09:08:00,
2013-09-01 04:10:00,75.8,70.3,29.84,SSE,158,0.0,0.0,83,0.00,,SKC,0.00,VWS V14.01,2013-09-01 09:10:00,
2013-09-01 04:13:00,75.7,70.2,29.84,SSE,158,0.0,0.0,83,0.00,,SKC,0.00,VWS V14.01,2013-09-01 09:13:00,
2013-09-01 04:18:00,75.6,70.4,29.84,SSE,158,0.0,0.0,84,0.00,,SKC,0.00,VWS V14.01,2013-09-01 09:18:00,
2013-09-01 04:20:00,75.6,70.4,29.84,SSE,158,0.0,0.0,84,0.00,,SKC,0.00,VWS V14.01,2013-09-01 09:20:00,
2013-09-01 04:23:00,75.5,70.3,29.83,SSE,158,0.0,0.0,84,0.00,,SKC,0.00,VWS V14.01,2013-09-01 09:23:00,
2013-09-01 04:28:00,75.5,70.7,29.83,SSE,158,0.0,0.0,85,0.00,,SKC,0.00,VWS V14.01,2013-09-01 09:28:00,
2013-09-01 04:30:00,75.5,70.7,29.83,SSE,158,0.0,0.0,85,0.00,,SKC,0.00,VWS V14.01,2013-09-01 09:30:00,
2013-09-01 04:33:00,75.4,70.6,29.83,SSE,157,0.0,0.0,85,0.00,,SKC,0.00,VWS V14.01,2013-09-01 09:33:00,
2013-09-01 04:38:00,75.4,70.6,29.83,SSE,158,0.0,0.0,85,0.00,,SKC,0.00,VWS V14.01,2013-09-01 09:38:00,
2013-09-01 04:40:00,75.4,70.6,29.84,SSE,158,0.0,0.0,85,0.00,,SKC,0.00,VWS V14.01,2013-09-01 09:40:00,
2013-09-01 04:43:00,75.3,70.5,29.84,SSE,158,0.0,0.0,85,0.00,,SKC,0.00,VWS V14.01,2013-09-01 09:43:00,
2013-09-01 04:48:00,75.3,70.5,29.84,SSE,158,0.0,0.0,85,0.00,,SKC,0.00,VWS V14.01,2013-09-01 09:48:00,
2013-09-01 04:50:00,75.3,70.5,29.84,SSE,158,0.0,0.0,85,0.00,,SKC,0.00,VWS V14.01,2013-09-01 09:50:00,
2013-09-01 04:53:00,75.2,70.4,29.83,SSE,157,0.0,0.0,85,0.00,,SKC,0.00,VWS V14.01,2013-09-01 09:53:00,
2013-09-01 04:58:00,75.1,70.6,29.83,SSE,158,0.0,0.0,86,0.00,,SKC,0.00,VWS V14.01,2013-09-01 09:58:00,
2013-09-01 05:00:00,75.1,70.6,29.83,SSE,158,0.0,0.0,86,0.00,,SKC,0.00,VWS V14.01,2013-09-01 10:00:00,
2013-09-01 05:03:00,75.0,70.5,29.83,SSE,158,0.0,0.0,86,0.00,,SKC,0.00,VWS V14.01,2013-09-01 10:03:00,
2013-09-01 05:08:00,75.0,70.9,29.84,SSE,158,0.0,0.0,87,0.00,,SKC,0.00,VWS V14.01,2013-09-01 10:08:00,
2013-09-01 05:10:00,75.0,70.9,29.83,SSE,157,0.0,0.0,87,0.00,,SKC,0.00,VWS V14.01,2013-09-01 10:10:00,
2013-09-01 05:13:00,74.9,70.8,29.83,SSE,158,0.0,0.0,87,0.00,,SKC,0.00,VWS V14.01,2013-09-01 10:13:00,
2013-09-01 05:18:00,74.8,70.7,29.83,SSE,158,0.0,0.0,87,0.00,,SKC,0.00,VWS V14.01,2013-09-01 10:18:00,
2013-09-01 05:20:00,74.9,70.8,29.83,SSE,157,0.0,0.0,87,0.00,,SKC,0.00,VWS V14.01,2013-09-01 10:20:00,
2013-09-01 05:23:00,74.7,70.6,29.83,SSE,157,0.0,0.0,87,0.00,,SKC,0.00,VWS V14.01,2013-09-01 10:23:00,
2013-09-01 05:28:00,74.6,70.5,29.83,SSE,158,0.0,0.0,87,0.00,,SKC,0.00,VWS V14.01,2013-09-01 10:28:00,
2013-09-01 05:30:00,74.7,70.6,29.83,SSE,158,0.0,0.0,87,0.00,,SKC,0.00,VWS V14.01,2013-09-01 10:30:00,
2013-09-01 05:33:00,74.5,70.4,29.83,SSE,158,0.0,0.0,87,0.00,,SKC,0.00,VWS V14.01,2013-09-01 10:33:00,
2013-09-01 05:38:00,74.4,70.3,29.83,SSE,158,0.0,0.0,87,0.00,,SKC,0.00,VWS V14.01,2013-09-01 10:38:00,
2013-09-01 05:40:00,74.4,70.3,29.84,SSE,157,0.0,0.0,87,0.00,,SKC,0.00,VWS V14.01,2013-09-01 10:40:00,
2013-09-01 05:43:00,74.2,70.4,29.84,SSE,158,0.0,0.0,88,0.00,,SKC,0.00,VWS V14.01,2013-09-01 10:43:00,
2013-09-01 05:48:00,74.2,70.4,29.84,SSE,158,0.0,0.0,88,0.00,,SKC,0.00,VWS V14.01,2013-09-01 10:48:00,
2013-09-01 05:50:00,74.2,70.4,29.84,SSE,158,0.0,0.0,88,0.00,,SKC,0.00,VWS V14.01,2013-09-01 10:50:00,
2013-09-01 05:53:00,74.1,70.3,29.84,SSE,158,0.0,0.0,88,0.00,,SKC,0.00,VWS V14.01,2013-09-01 10:53:00,
2013-09-01 05:58:00,74.0,70.6,29.84,SSE,157,0.0,0.0,89,0.00,,SKC,0.00,VWS V14.01,2013-09-01 10:58:00,
2013-09-01 06:00:00,74.0,70.6,29.84,SSE,158,0.0,0.0,89,0.00,,SKC,0.00,VWS V14.01,2013-09-01 11:00:00,
2013-09-01 06:03:00,74.0,70.6,29.84,SSE,158,0.0,0.0,89,0.00,,SKC,0.00,VWS V14.01,2013-09-01 11:03:00,
2013-09-01 06:08:00,73.9,70.5,29.84,SSE,158,0.0,0.0,89,0.00,,SKC,0.00,VWS V14.01,2013-09-01 11:08:00,
2013-09-01 06:10:00,74.0,70.6,29.84,SSE,158,0.0,0.0,89,0.00,,SKC,0.00,VWS V14.01,2013-09-01 11:10:00,
2013-09-01 06:13:00,73.9,70.8,29.84,SSE,157,0.0,0.0,90,0.00,,SKC,0.00,VWS V14.01,2013-09-01 11:13:00,
2013-09-01 06:18:00,73.9,70.8,29.84,SSE,158,0.0,0.0,90,0.00,,SKC,0.00,VWS V14.01,2013-09-01 11:18:00,
2013-09-01 06:20:00,73.9,70.8,29.84,SSE,158,0.0,0.0,90,0.00,,SKC,0.00,VWS V14.01,2013-09-01 11:20:00,
2013-09-01 06:23:00,73.9,70.8,29.85,SSE,158,0.0,0.0,90,0.00,,SKC,0.00,VWS V14.01,2013-09-01 11:23:00,
2013-09-01 06:27:00,73.9,70.8,29.84,SSE,158,0.0,0.0,90,0.00,,SKC,0.00,VWS V14.01,2013-09-01 11:27:00,
2013-09-01 06:30:00,73.9,70.8,29.85,SSE,158,0.0,0.0,90,0.00,,SKC,0.00,VWS V14.01,2013-09-01 11:30:00,
2013-09-01 06:32:00,73.9,70.8,29.84,SSE,158,0.0,0.0,90,0.00,,SKC,0.00,VWS V14.01,2013-09-01 11:32:00,
2013-09-01 06:37:00,73.9,71.1,29.85,SSE,157,0.0,0.0,91,0.00,,SKC,0.00,VWS V14.01,2013-09-01 11:37:00,
2013-09-01 06:40:00,73.9,71.1,29.84,SSE,158,0.0,0.0,91,0.00,,SKC,0.00,VWS V14.01,2013-09-01 11:40:00,
2013-09-01 06:42:00,73.9,71.1,29.85,SSE,158,0.0,0.0,91,0.00,,SKC,0.00,VWS V14.01,2013-09-01 11:42:00,
2013-09-01 06:47:00,73.8,71.0,29.85,SSE,158,0.0,0.0,91,0.00,,SKC,0.00,VWS V14.01,2013-09-01 11:47:00,
2013-09-01 06:50:00,73.8,71.0,29.85,SSE,158,0.0,0.0,91,0.00,,SKC,0.00,VWS V14.01,2013-09-01 11:50:00,
2013-09-01 06:52:00,73.8,71.0,29.85,SSE,158,0.0,0.0,91,0.00,,SKC,0.00,VWS V14.01,2013-09-01 11:52:00,
2013-09-01 06:57:00,73.8,71.0,29.85,SSE,158,0.0,0.0,91,0.00,,SKC,0.00,VWS V14.01,2013-09-01 11:57:00,
2013-09-01 07:00:00,73.8,71.0,29.85,SSE,157,0.0,0.0,91,0.00,,SKC,0.00,VWS V14.01,2013-09-01 12:00:00,
2013-09-01 07:02:00,73.7,70.9,29.86,SSE,158,0.0,0.0,91,0.00,,SKC,0.00,VWS V14.01,2013-09-01 12:02:00,
2013-09-01 07:07:00,73.5,70.7,29.85,SSE,157,0.0,0.0,91,0.00,,SKC,0.00,VWS V14.01,2013-09-01 12:07:00,
2013-09-01 07:10:00,73.6,70.8,29.86,SSE,158,0.0,0.0,91,0.00,,SKC,0.00,VWS V14.01,2013-09-01 12:10:00,
2013-09-01 07:12:00,73.4,70.6,29.85,SSE,158,0.0,0.0,91,0.00,,SKC,0.00,VWS V14.01,2013-09-01 12:12:00,
2013-09-01 07:17:00,73.4,70.9,29.86,SSE,158,0.0,0.0,92,0.00,,SKC,0.00,VWS V14.01,2013-09-01 12:17:00,
2013-09-01 07:20:00,73.4,70.9,29.85,SSE,158,0.0,0.0,92,0.00,,SKC,0.00,VWS V14.01,2013-09-01 12:20:00,
2013-09-01 07:22:00,73.3,70.5,29.86,SSE,158,0.0,0.0,91,0.00,,SKC,0.00,VWS V14.01,2013-09-01 12:22:00,
2013-09-01 07:27:00,73.2,70.7,29.86,SSE,158,0.0,0.0,92,0.00,,SKC,0.00,VWS V14.01,2013-09-01 12:27:00,
2013-09-01 07:30:00,73.3,70.5,29.86,SSE,158,0.0,0.0,91,0.00,,SKC,0.00,VWS V14.01,2013-09-01 12:30:00,
2013-09-01 07:32:00,73.3,70.8,29.87,SSE,158,0.0,0.0,92,0.00,,SKC,0.00,VWS V14.01,2013-09-01 12:32:00,
2013-09-01 07:37:00,73.3,70.8,29.87,SSE,158,0.0,0.0,92,0.00,,SKC,0.00,VWS V14.01,2013-09-01 12:37:00,
2013-09-01 07:40:00,73.3,70.8,29.87,SSE,158,0.0,0.0,92,0.00,,SKC,0.00,VWS V14.01,2013-09-01 12:40:00,
2013-09-01 07:42:00,73.3,70.8,29.87,SSE,158,0.0,0.0,92,0.00,,SKC,0.00,VWS V14.01,2013-09-01 12:42:00,
2013-09-01 07:47:00,73.5,71.4,29.87,SSE,158,0.0,0.0,93,0.00,,SKC,0.00,VWS V14.01,2013-09-01 12:47:00,
2013-09-01 07:50:00,73.4,71.3,29.87,SSE,158,0.0,0.0,93,0.00,,SKC,0.00,VWS V14.01,2013-09-01 12:50:00,
2013-09-01 07:52:00,73.7,71.6,29.87,SSE,158,0.0,0.0,93,0.00,,SKC,0.00,VWS V14.01,2013-09-01 12:52:00,
2013-09-01 07:57:00,73.9,72.1,29.87,SSE,158,0.0,0.0,94,0.00,,SKC,0.00,VWS V14.01,2013-09-01 12:57:00,
2013-09-01 08:00:00,73.8,72.0,29.87,SSE,158,0.0,0.0,94,0.00,,SKC,0.00,VWS V14.01,2013-09-01 13:00:00,
2013-09-01 08:02:00,74.0,72.2,29.87,SSE,158,0.0,0.0,94,0.00,,SKC,0.00,VWS V14.01,2013-09-01 13:02:00,
2013-09-01 08:07:00,74.3,72.5,29.87,SSE,158,0.0,0.0,94,0.00,,SKC,0.00,VWS V14.01,2013-09-01 13:07:00,
2013-09-01 08:10:00,74.2,72.4,29.87,SSE,158,0.0,0.0,94,0.00,,SKC,0.00,VWS V14.01,2013-09-01 13:10:00,
2013-09-01 08:12:00,74.4,72.6,29.87,SSE,158,0.0,0.0,94,0.00,,SKC,0.00,VWS V14.01,2013-09-01 13:12:00,
2013-09-01 08:17:00,74.7,72.9,29.87,SSE,158,0.0,0.0,94,0.00,,SKC,0.00,VWS V14.01,2013-09-01 13:17:00,
2013-09-01 08:20:00,74.6,72.8,29.88,SSE,158,0.0,0.0,94,0.00,,SKC,0.00,VWS V14.01,2013-09-01 13:20:00,
2013-09-01 08:22:00,74.9,73.1,29.88,SSE,158,0.0,0.0,94,0.00,,SKC,0.00,VWS V14.01,2013-09-01 13:22:00,
2013-09-01 08:27:00,75.2,73.0,29.88,SSE,158,0.0,0.0,93,0.00,,SKC,0.00,VWS V14.01,2013-09-01 13:27:00,
2013-09-01 08:30:00,75.1,73.3,29.87,SSE,158,0.0,0.0,94,0.00,,SKC,0.00,VWS V14.01,2013-09-01 13:30:00,
2013-09-01 08:32:00,75.5,73.3,29.88,SSE,157,0.0,0.0,93,0.00,,SKC,0.00,VWS V14.01,2013-09-01 13:32:00,
2013-09-01 08:37:00,75.9,73.7,29.88,SSE,157,0.0,0.0,93,0.00,,SKC,0.00,VWS V14.01,2013-09-01 13:37:00,
2013-09-01 08:40:00,75.7,73.5,29.88,SSE,157,0.0,0.0,93,0.00,,SKC,0.00,VWS V14.01,2013-09-01 13:40:00,
2013-09-01 08:42:00,76.4,73.9,29.88,SSE,157,0.0,0.0,92,0.00,,SKC,0.00,VWS V14.01,2013-09-01 13:42:00,
2013-09-01 08:47:00,76.8,74.0,29.87,SSE,157,0.0,1.0,91,0.00,,SKC,0.00,VWS V14.01,2013-09-01 13:47:00,
2013-09-01 08:50:00,76.6,73.8,29.87,SSE,157,0.0,1.0,91,0.00,,SKC,0.00,VWS V14.01,2013-09-01 13:50:00,
2013-09-01 08:52:00,77.3,74.1,29.88,SSE,157,0.0,1.0,90,0.00,,SKC,0.00,VWS V14.01,2013-09-01 13:52:00,
2013-09-01 08:57:00,77.8,74.3,29.88,SSE,157,0.0,1.0,89,0.00,,SKC,0.00,VWS V14.01,2013-09-01 13:57:00,
2013-09-01 09:00:00,77.6,74.1,29.88,SSE,157,0.0,1.0,89,0.00,,SKC,0.00,VWS V14.01,2013-09-01 14:00:00,
2013-09-01 09:02:00,78.4,74.2,29.88,SSE,157,0.0,1.0,87,0.00,,SKC,0.00,VWS V14.01,2013-09-01 14:02:00,
2013-09-01 09:07:00,78.9,74.4,29.88,SSE,157,0.0,5.0,86,0.00,,SKC,0.00,VWS V14.01,2013-09-01 14:07:00,
2013-09-01 09:10:00,78.7,74.5,29.88,SSE,157,0.0,1.0,87,0.00,,SKC,0.00,VWS V14.01,2013-09-01 14:10:00,
2013-09-01 09:12:00,79.2,74.3,29.88,SSE,157,0.0,5.0,85,0.00,,SKC,0.00,VWS V14.01,2013-09-01 14:12:00,
2013-09-01 09:17:00,79.6,74.3,29.88,SSE,157,0.0,0.0,84,0.00,,SKC,0.00,VWS V14.01,2013-09-01 14:17:00,
2013-09-01 09:20:00,79.4,74.5,29.88,SSE,157,0.0,5.0,85,0.00,,SKC,0.00,VWS V14.01,2013-09-01 14:20:00,
2013-09-01 09:22:00,80.2,74.6,29.88,SSE,157,0.0,3.0,83,0.00,,SKC,0.00,VWS V14.01,2013-09-01 14:22:00,
2013-09-01 09:27:00,80.7,74.7,29.88,SSE,157,0.0,4.0,82,0.00,,SKC,0.00,VWS V14.01,2013-09-01 14:27:00,
2013-09-01 09:30:00,80.5,74.5,29.88,SSE,157,0.0,3.0,82,0.00,,SKC,0.00,VWS V14.01,2013-09-01 14:30:00,
2013-09-01 09:32:00,81.3,74.9,29.88,SSE,157,0.0,4.0,81,0.00,,SKC,0.00,VWS V14.01,2013-09-01 14:32:00,
2013-09-01 09:37:00,81.8,75.0,29.88,SSE,157,0.0,0.0,80,0.00,,SKC,0.00,VWS V14.01,2013-09-01 14:37:00,
2013-09-01 09:40:00,81.6,74.8,29.88,SSE,157,0.0,4.0,80,0.00,,SKC,0.00,VWS V14.01,2013-09-01 14:40:00,
2013-09-01 09:42:00,82.4,74.9,29.88,SSE,159,3.0,8.0,78,0.00,,SKC,0.00,VWS V14.01,2013-09-01 14:42:00,
2013-09-01 09:47:00,82.8,74.9,29.88,SSE,159,0.0,3.0,77,0.00,,SKC,0.00,VWS V14.01,2013-09-01 14:47:00,
2013-09-01 09:50:00,82.7,75.2,29.88,SSE,159,0.0,8.0,78,0.00,,SKC,0.00,VWS V14.01,2013-09-01 14:50:00,
2013-09-01 09:52:00,83.1,74.8,29.88,SSE,159,0.0,6.0,76,0.00,,SKC,0.00,VWS V14.01,2013-09-01 14:52:00,
2013-09-01 09:57:00,83.5,74.8,29.88,SSE,159,2.0,6.0,75,0.00,,SKC,0.00,VWS V14.01,2013-09-01 14:57:00,
2013-09-01 10:00:00,83.4,75.0,29.88,SSE,159,0.0,6.0,76,0.00,,SKC,0.00,VWS V14.01,2013-09-01 15:00:00,
2013-09-01 10:02:00,83.9,74.7,29.88,SSE,159,5.0,6.0,74,0.00,,SKC,0.00,VWS V14.01,2013-09-01 15:02:00,
2013-09-01 10:07:00,84.3,74.3,29.88,SSE,162,0.0,10.0,72,0.00,,SKC,0.00,VWS V14.01,2013-09-01 15:07:00,
2013-09-01 10:10:00,84.1,74.5,29.88,SSE,159,7.0,7.0,73,0.00,,SKC,0.00,VWS V14.01,2013-09-01 15:10:00,
2013-09-01 10:12:00,84.6,74.2,29.88,SSE,162,0.0,10.0,71,0.00,,SKC,0.00,VWS V14.01,2013-09-01 15:12:00,
2013-09-01 10:17:00,85.0,73.7,29.88,SSE,162,0.0,6.0,69,0.00,,SKC,0.00,VWS V14.01,2013-09-01 15:17:00,
2013-09-01 10:20:00,84.8,73.9,29.88,SSE,162,0.0,10.0,70,0.00,,SKC,0.00,VWS V14.01,2013-09-01 15:20:00,
2013-09-01 10:22:00,85.4,74.5,29.88,SSE,163,0.0,8.0,70,0.00,,SKC,0.00,VWS V14.01,2013-09-01 15:22:00,
2013-09-01 10:27:00,85.7,73.9,29.88,SSE,163,0.0,1.0,68,0.00,,SKC,0.00,VWS V14.01,2013-09-01 15:27:00,
2013-09-01 10:30:00,85.6,74.3,29.88,SSE,163,0.0,8.0,69,0.00,,SKC,0.00,VWS V14.01,2013-09-01 15:30:00,
2013-09-01 10:32:00,86.2,74.0,29.88,SSE,163,0.0,4.0,67,0.00,,SKC,0.00,VWS V14.01,2013-09-01 15:32:00,
2013-09-01 10:37:00,86.7,74.4,29.88,SSE,163,3.0,6.0,67,0.00,,SKC,0.00,VWS V14.01,2013-09-01 15:37:00,
2013-09-01 10:40:00,86.5,74.2,29.88,SSE,163,0.0,4.0,67,0.00,,SKC,0.00,VWS V14.01,2013-09-01 15:40:00,
2013-09-01 10:42:00,87.0,74.3,29.87,SSE,163,0.0,7.0,66,0.00,,SKC,0.00,VWS V14.01,2013-09-01 15:42:00,
2013-09-01 10:47:00,87.3,74.1,29.88,SSE,163,0.0,6.0,65,0.00,,SKC,0.00,VWS V14.01,2013-09-01 15:47:00,
2013-09-01 10:50:00,87.2,74.0,29.88,SSE,163,0.0,7.0,65,0.00,,SKC,0.00,VWS V14.01,2013-09-01 15:50:00,
2013-09-01 10:52:00,87.5,73.4,29.88,SSE,163,0.0,6.0,63,0.00,,SKC,0.00,VWS V14.01,2013-09-01 15:52:00,
2013-09-01 10:57:00,87.8,74.1,29.88,SSE,163,0.0,7.0,64,0.00,,SKC,0.00,VWS V14.01,2013-09-01 15:57:00,
2013-09-01 11:00:00,87.6,73.9,29.88,SSE,163,0.0,6.0,64,0.00,,SKC,0.00,VWS V14.01,2013-09-01 16:00:00,
2013-09-01 11:02:00,88.1,73.4,29.88,SSE,163,0.0,7.0,62,0.00,,SKC,0.00,VWS V14.01,2013-09-01 16:02:00,
2013-09-01 11:07:00,88.5,73.3,29.88,SSE,163,0.0,3.0,61,0.00,,SKC,0.00,VWS V14.01,2013-09-01 16:07:00,
2013-09-01 11:10:00,88.3,73.2,29.88,SSE,163,1.0,7.0,61,0.00,,SKC,0.00,VWS V14.01,2013-09-01 16:10:00,
2013-09-01 11:12:00,88.8,73.1,29.88,SSE,163,0.0,4.0,60,0.00,,SKC,0.00,VWS V14.01,2013-09-01 16:12:00,
2013-09-01 11:17:00,89.2,73.5,29.88,SSE,164,0.0,6.0,60,0.00,,SKC,0.00,VWS V14.01,2013-09-01 16:17:00,
2013-09-01 11:20:00,89.1,73.9,29.88,SSE,163,0.0,4.0,61,0.00,,SKC,0.00,VWS V14.01,2013-09-01 16:20:00,
2013-09-01 11:22:00,89.6,73.9,29.88,SSE,166,0.0,9.0,60,0.00,,SKC,0.00,VWS V14.01,2013-09-01 16:22:00,
2013-09-01 11:27:00,90.1,73.8,29.88,SSE,166,0.0,1.0,59,0.00,,SKC,0.00,VWS V14.01,2013-09-01 16:27:00,
2013-09-01 11:30:00,89.9,73.7,29.88,SSE,166,0.0,9.0,59,0.00,,SKC,0.00,VWS V14.01,2013-09-01 16:30:00,
2013-09-01 11:32:00,90.5,73.2,29.88,SSE,166,0.0,1.0,57,0.00,,SKC,0.00,VWS V14.01,2013-09-01 16:32:00,
2013-09-01 11:37:00,90.9,73.0,29.88,SSE,166,0.0,7.0,56,0.00,,SKC,0.00,VWS V14.01,2013-09-01 16:37:00,
2013-09-01 11:40:00,90.8,73.5,29.88,SSE,166,0.0,1.0,57,0.00,,SKC,0.00,VWS V14.01,2013-09-01 16:40:00,
2013-09-01 11:42:00,91.3,72.9,29.88,SSE,166,0.0,7.0,55,0.00,,SKC,0.00,VWS V14.01,2013-09-01 16:42:00,
2013-09-01 11:47:00,91.7,72.7,29.88,SSE,166,0.0,2.0,54,0.00,,SKC,0.00,VWS V14.01,2013-09-01 16:47:00,
2013-09-01 11:50:00,91.6,73.2,29.88,SSE,166,0.0,7.0,55,0.00,,SKC,0.00,VWS V14.01,2013-09-01 16:50:00,
2013-09-01 11:52:00,92.0,73.0,29.88,SSE,166,0.0,2.0,54,0.00,,SKC,0.00,VWS V14.01,2013-09-01 16:52:00,
2013-09-01 11:57:00,92.5,72.9,29.88,SSE,166,0.0,0.0,53,0.00,,SKC,0.00,VWS V14.01,2013-09-01 16:57:00,
2013-09-01 12:00:00,92.3,73.3,29.88,SSE,166,0.0,2.0,54,0.00,,SKC,0.00,VWS V14.01,2013-09-01 17:00:00,
2013-09-01 12:05:00,93.0,72.8,29.88,SSE,166,0.0,0.0,52,0.00,,SKC,0.00,VWS V14.01,2013-09-01 17:05:00,
2013-09-01 12:10:00,93.4,73.2,29.88,SSE,166,0.0,2.0,52,0.00,,SKC,0.00,VWS V14.01,2013-09-01 17:10:00,
2013-09-01 12:15:00,93.6,72.8,29.87,SSE,165,0.0,5.0,51,0.00,,SKC,0.00,VWS V14.01,2013-09-01 17:15:00,
2013-09-01 12:20:00,93.5,72.7,29.87,SSE,165,0.0,2.0,51,0.00,,SKC,0.00,VWS V14.01,2013-09-01 17:20:00,
2013-09-01 12:25:00,93.7,72.3,29.87,SSE,165,0.0,2.0,50,0.00,,SKC,0.00,VWS V14.01,2013-09-01 17:25:00,
2013-09-01 12:30:00,94.0,72.5,29.86,SSE,165,1.0,7.0,50,0.00,,SKC,0.00,VWS V14.01,2013-09-01 17:30:00,
2013-09-01 12:35:00,94.2,72.7,29.86,SSE,167,0.0,8.0,50,0.00,,SKC,0.00,VWS V14.01,2013-09-01 17:35:00,
2013-09-01 12:40:00,94.2,72.7,29.85,SSE,167,0.0,6.0,50,0.00,,SKC,0.00,VWS V14.01,2013-09-01 17:40:00,
2013-09-01 12:45:00,94.5,72.4,29.86,SSE,167,0.0,6.0,49,0.00,,SKC,0.00,VWS V14.01,2013-09-01 17:45:00,
2013-09-01 12:50:00,94.9,73.4,29.86,SSE,167,0.0,0.0,50,0.00,,SKC,0.00,VWS V14.01,2013-09-01 17:50:00,
2013-09-01 12:55:00,95.3,71.3,29.85,SSE,167,0.0,9.0,46,0.00,,SKC,0.00,VWS V14.01,2013-09-01 17:55:00,
2013-09-01 13:00:00,95.5,71.4,29.85,SSE,167,0.0,5.0,46,0.00,,SKC,0.00,VWS V14.01,2013-09-01 18:00:00,
2013-09-01 13:05:00,95.6,70.9,29.85,SSE,167,0.0,5.0,45,0.00,,SKC,0.00,VWS V14.01,2013-09-01 18:05:00,
2013-09-01 13:10:00,96.0,71.9,29.84,SSE,167,0.0,3.0,46,0.00,,SKC,0.00,VWS V14.01,2013-09-01 18:10:00,
2013-09-01 13:15:00,96.3,72.8,29.84,SSE,167,0.0,6.0,47,0.00,,SKC,0.00,VWS V14.01,2013-09-01 18:15:00,
2013-09-01 13:20:00,96.6,72.4,29.84,SSE,167,0.0,0.0,46,0.00,,SKC,0.00,VWS V14.01,2013-09-01 18:20:00,
2013-09-01 13:25:00,96.9,70.7,29.84,SSE,167,2.0,4.0,43,0.00,,SKC,0.00,VWS V14.01,2013-09-01 18:25:00,
2013-09-01 13:30:00,96.9,71.4,29.84,SSE,167,0.0,3.0,44,0.00,,SKC,0.00,VWS V14.01,2013-09-01 18:30:00,
2013-09-01 13:35:00,96.7,70.5,29.84,SSE,166,0.0,9.0,43,0.00,,SKC,0.00,VWS V14.01,2013-09-01 18:35:00,
2013-09-01 13:40:00,96.6,70.4,29.84,SSE,167,1.0,7.0,43,0.00,,SKC,0.00,VWS V14.01,2013-09-01 18:40:00,
2013-09-01 13:45:00,96.4,70.9,29.83,SSE,167,0.0,7.0,44,0.00,,SKC,0.00,VWS V14.01,2013-09-01 18:45:00,
2013-09-01 13:50:00,96.4,70.3,29.83,SSE,167,0.0,4.0,43,0.00,,SKC,0.00,VWS V14.01,2013-09-01 18:50:00,
2013-09-01 13:55:00,96.5,71.0,29.83,SSE,165,1.0,7.0,44,0.00,,SKC,0.00,VWS V14.01,2013-09-01 18:55:00,
2013-09-01 14:00:00,96.7,69.1,29.83,SSE,165,2.0,5.0,41,0.00,,SKC,0.00,VWS V14.01,2013-09-01 19:00:00,
2013-09-01 14:05:00,96.9,70.7,29.83,SSE,165,0.0,5.0,43,0.00,,SKC,0.00,VWS V14.01,2013-09-01 19:05:00,
2013-09-01 14:10:00,97.3,71.1,29.83,SSE,165,0.0,3.0,43,0.00,,SKC,0.00,VWS V14.01,2013-09-01 19:10:00,
2013-09-01 14:15:00,97.5,71.3,29.82,SSE,165,0.0,7.0,43,0.00,,SKC,0.00,VWS V14.01,2013-09-01 19:15:00,
2013-09-01 14:20:00,97.7,71.4,29.82,SSE,165,0.0,2.0,43,0.00,,SKC,0.00,VWS V14.01,2013-09-01 19:20:00,
2013-09-01 14:25:00,98.0,71.0,29.82,SSE,163,1.0,8.0,42,0.00,,SKC,0.00,VWS V14.01,2013-09-01 19:25:00,
2013-09-01 14:30:00,98.1,70.4,29.82,SSE,163,2.0,5.0,41,0.00,,SKC,0.00,VWS V14.01,2013-09-01 19:30:00,
2013-09-01 14:35:00,98.2,69.0,29.82,SSE,163,0.0,5.0,39,0.00,,SKC,0.00,VWS V14.01,2013-09-01 19:35:00,
2013-09-01 14:40:00,98.3,70.6,29.82,SSE,163,0.0,3.0,41,0.00,,SKC,0.00,VWS V14.01,2013-09-01 19:40:00,
2013-09-01 14:45:00,98.4,69.9,29.81,SSE,163,4.0,7.0,40,0.00,,SKC,0.00,VWS V14.01,2013-09-01 19:45:00,
2013-09-01 14:50:00,98.5,70.0,29.81,SSE,163,0.0,4.0,40,0.00,,SKC,0.00,VWS V14.01,2013-09-01 19:50:00,
2013-09-01 14:55:00,98.6,70.1,29.81,SSE,163,0.0,4.0,40,0.00,,SKC,0.00,VWS V14.01,2013-09-01 19:55:00,
2013-09-01 15:00:00,98.8,70.3,29.81,SSE,163,0.0,5.0,40,0.00,,SKC,0.00,VWS V14.01,2013-09-01 20:00:00,
2013-09-01 15:05:00,99.1,71.3,29.81,SSE,163,5.0,6.0,41,0.00,,SKC,0.00,VWS V14.01,2013-09-01 20:05:00,
2013-09-01 15:10:00,99.1,70.6,29.80,SSE,163,1.0,3.0,40,0.00,,SKC,0.00,VWS V14.01,2013-09-01 20:10:00,
2013-09-01 15:15:00,99.1,69.8,29.80,SSE,163,0.0,6.0,39,0.00,,SKC,0.00,VWS V14.01,2013-09-01 20:15:00,
2013-09-01 15:20:00,99.2,69.9,29.80,SSE,163,0.0,6.0,39,0.00,,SKC,0.00,VWS V14.01,2013-09-01 20:20:00,
2013-09-01 15:25:00,99.4,70.1,29.80,SSE,163,0.0,7.0,39,0.00,,SKC,0.00,VWS V14.01,2013-09-01 20:25:00,
2013-09-01 15:30:00,99.3,69.2,29.80,SSE,161,1.0,7.0,38,0.00,,SKC,0.00,VWS V14.01,2013-09-01 20:30:00,
2013-09-01 15:35:00,98.8,70.3,29.80,SSE,161,0.0,7.0,40,0.00,,SKC,0.00,VWS V14.01,2013-09-01 20:35:00,
2013-09-01 15:40:00,98.9,69.6,29.80,SSE,161,0.0,2.0,39,0.00,,SKC,0.00,VWS V14.01,2013-09-01 20:40:00,
2013-09-01 15:45:00,99.2,69.9,29.79,SSE,155,0.0,8.0,39,0.00,,SKC,0.00,VWS V14.01,2013-09-01 20:45:00,
2013-09-01 15:50:00,99.3,69.2,29.79,SSE,155,0.0,5.0,38,0.00,,SKC,0.00,VWS V14.01,2013-09-01 20:50:00,
2013-09-01 15:55:00,99.6,69.5,29.79,SSE,155,0.0,5.0,38,0.00,,SKC,0.00,VWS V14.01,2013-09-01 20:55:00,
2013-09-01 16:00:00,99.9,69.8,29.78,SSE,155,1.0,3.0,38,0.00,,SKC,0.00,VWS V14.01,2013-09-01 21:00:00,
2013-09-01 16:05:00,100.2,69.2,29.79,SSE,155,0.0,5.0,37,0.00,,SKC,0.00,VWS V14.01,2013-09-01 21:05:00,
2013-09-01 16:10:00,100.2,69.2,29.78,SSE,155,1.0,7.0,37,0.00,,SKC,0.00,VWS V14.01,2013-09-01 21:10:00,
2013-09-01 16:15:00,100.0,69.8,29.78,SSE,155,0.0,7.0,38,0.00,,SKC,0.00,VWS V14.01,2013-09-01 21:15:00,
2013-09-01 16:20:00,99.8,69.7,29.78,SSE,155,0.0,3.0,38,0.00,,SKC,0.00,VWS V14.01,2013-09-01 21:20:00,
2013-09-01 16:25:00,100.1,69.2,29.78,SSE,155,0.0,3.0,37,0.00,,SKC,0.00,VWS V14.01,2013-09-01 21:25:00,
2013-09-01 16:30:00,100.4,69.4,29.77,SSE,155,0.0,6.0,37,0.00,,SKC,0.00,VWS V14.01,2013-09-01 21:30:00,
2013-09-01 16:35:00,100.5,68.7,29.78,SSE,155,0.0,6.0,36,0.00,,SKC,0.00,VWS V14.01,2013-09-01 21:35:00,
2013-09-01 16:40:00,100.3,68.5,29.78,SSE,155,0.0,7.0,36,0.00,,SKC,0.00,VWS V14.01,2013-09-01 21:40:00,
2013-09-01 16:45:00,99.9,68.2,29.77,SSE,155,0.0,7.0,36,0.00,,SKC,0.00,VWS V14.01,2013-09-01 21:45:00,
2013-09-01 16:50:00,99.3,67.7,29.78,SSE,155,6.0,7.0,36,0.00,,SKC,0.00,VWS V14.01,2013-09-01 21:50:00,
2013-09-01 16:55:00,98.8,68.0,29.78,SSE,155,0.0,7.0,37,0.00,,SKC,0.00,VWS V14.01,2013-09-01 21:55:00,
2013-09-01 17:00:00,98.7,68.7,29.78,SSE,155,0.0,0.0,38,0.00,,SKC,0.00,VWS V14.01,2013-09-01 22:00:00,
2013-09-01 17:05:00,98.7,67.9,29.78,SSE,155,0.0,4.0,37,0.00,,SKC,0.00,VWS V14.01,2013-09-01 22:05:00,
2013-09-01 17:10:00,98.6,67.8,29.77,SSE,155,0.0,5.0,37,0.00,,SKC,0.00,VWS V14.01,2013-09-01 22:10:00,
2013-09-01 17:15:00,98.7,67.9,29.77,SSE,156,1.0,6.0,37,0.00,,SKC,0.00,VWS V14.01,2013-09-01 22:15:00,
2013-09-01 17:20:00,98.7,67.9,29.78,SSE,157,3.0,9.0,37,0.00,,SKC,0.00,VWS V14.01,2013-09-01 22:20:00,
2013-09-01 17:25:00,98.6,67.8,29.77,SSE,157,0.0,9.0,37,0.00,,SKC,0.00,VWS V14.01,2013-09-01 22:25:00,
2013-09-01 17:30:00,98.7,67.1,29.78,SSE,157,0.0,7.0,36,0.00,,SKC,0.00,VWS V14.01,2013-09-01 22:30:00,
2013-09-01 17:35:00,98.6,67.1,29.78,SSE,157,0.0,7.0,36,0.00,,SKC,0.00,VWS V14.01,2013-09-01 22:35:00,
2013-09-01 17:40:00,98.3,67.6,29.77,SSE,157,0.0,5.0,37,0.00,,SKC,0.00,VWS V14.01,2013-09-01 22:40:00,
2013-09-01 17:45:00,98.2,67.5,29.77,SSE,157,1.0,5.0,37,0.00,,SKC,0.00,VWS V14.01,2013-09-01 22:45:00,
2013-09-01 17:50:00,98.2,67.5,29.77,SSE,157,0.0,3.0,37,0.00,,SKC,0.00,VWS V14.01,2013-09-01 22:50:00,
2013-09-01 17:55:00,98.2,67.5,29.78,SSE,157,0.0,7.0,37,0.00,,SKC,0.00,VWS V14.01,2013-09-01 22:55:00,
2013-09-01 18:00:00,98.0,67.3,29.77,SSE,157,0.0,3.0,37,0.00,,SKC,0.00,VWS V14.01,2013-09-01 23:00:00,
2013-09-01 18:05:00,98.0,66.5,29.77,SSE,157,0.0,3.0,36,0.00,,SKC,0.00,VWS V14.01,2013-09-01 23:05:00,
2013-09-01 18:10:00,97.8,66.3,29.77,SSE,157,0.0,2.0,36,0.00,,SKC,0.00,VWS V14.01,2013-09-01 23:10:00,
2013-09-01 18:15:00,97.7,67.1,29.76,SSE,157,0.0,3.0,37,0.00,,SKC,0.00,VWS V14.01,2013-09-01 23:15:00,
2013-09-01 18:20:00,97.6,67.0,29.76,SSE,157,0.0,5.0,37,0.00,,SKC,0.00,VWS V14.01,2013-09-01 23:20:00,
2013-09-01 18:25:00,97.5,66.9,29.76,SSE,157,0.0,5.0,37,0.00,,SKC,0.00,VWS V14.01,2013-09-01 23:25:00,
2013-09-01 18:30:00,97.3,66.7,29.76,SSE,157,2.0,4.0,37,0.00,,SKC,0.00,VWS V14.01,2013-09-01 23:30:00,
2013-09-01 18:35:00,97.2,66.6,29.76,SSE,157,0.0,4.0,37,0.00,,SKC,0.00,VWS V14.01,2013-09-01 23:35:00,
2013-09-01 18:40:00,97.0,67.2,29.76,SSE,157,4.0,6.0,38,0.00,,SKC,0.00,VWS V14.01,2013-09-01 23:40:00,
2013-09-01 18:45:00,96.8,67.0,29.75,SSE,158,0.0,7.0,38,0.00,,SKC,0.00,VWS V14.01,2013-09-01 23:45:00,
2013-09-01 18:49:00,96.6,66.8,29.75,SSE,158,1.0,6.0,38,0.00,,SKC,0.00,VWS V14.01,2013-09-01 23:49:00,
2013-09-01 18:50:00,96.8,67.0,29.75,SSE,158,0.0,7.0,38,0.00,,SKC,0.00,VWS V14.01,2013-09-01 23:50:00,
2013-09-01 18:54:00,96.3,66.6,29.75,SSE,158,0.0,6.0,38,0.00,,SKC,0.00,VWS V14.01,2013-09-01 23:54:00,
2013-09-01 18:59:00,96.1,66.4,29.76,SSE,158,0.0,1.0,38,0.00,,SKC,0.00,VWS V14.01,2013-09-01 23:59:00,
2013-09-01 19:00:00,96.3,66.6,29.75,SSE,158,0.0,6.0,38,0.00,,SKC,0.00,VWS V14.01,2013-09-02 00:00:00,
2013-09-01 19:04:00,95.8,66.9,29.76,SSE,158,0.0,5.0,39,0.00,,SKC,0.00,VWS V14.01,2013-09-02 00:04:00,
2013-09-01 19:09:00,95.6,66.0,29.76,SSE,158,0.0,6.0,38,0.00,,SKC,0.00,VWS V14.01,2013-09-02 00:09:00,
2013-09-01 19:10:00,95.8,66.9,29.76,SSE,158,0.0,5.0,39,0.00,,SKC,0.00,VWS V14.01,2013-09-02 00:10:00,
2013-09-01 19:14:00,95.3,66.4,29.76,SSE,158,0.0,6.0,39,0.00,,SKC,0.00,VWS V14.01,2013-09-02 00:14:00,
2013-09-01 19:19:00,95.0,66.9,29.77,SSE,158,0.0,4.0,40,0.00,,SKC,0.00,VWS V14.01,2013-09-02 00:19:00,
2013-09-01 19:20:00,95.3,66.4,29.76,SSE,158,4.0,6.0,39,0.00,,SKC,0.00,VWS V14.01,2013-09-02 00:20:00,
2013-09-01 19:24:00,94.7,66.6,29.77,SSE,158,0.0,6.0,40,0.00,,SKC,0.00,VWS V14.01,2013-09-02 00:24:00,
2013-09-01 19:29:00,94.4,66.4,29.77,SSE,158,2.0,5.0,40,0.00,,SKC,0.00,VWS V14.01,2013-09-02 00:29:00,
2013-09-01 19:30:00,94.6,66.6,29.77,SSE,158,0.0,6.0,40,0.00,,SKC,0.00,VWS V14.01,2013-09-02 00:30:00,
2013-09-01 19:34:00,94.1,66.1,29.77,SSE,158,0.0,5.0,40,0.00,,SKC,0.00,VWS V14.01,2013-09-02 00:34:00,
2013-09-01 19:39:00,93.8,65.8,29.77,SSE,158,0.0,2.0,40,0.00,,SKC,0.00,VWS V14.01,2013-09-02 00:39:00,
2013-09-01 19:40:00,94.0,66.0,29.77,SSE,158,0.0,5.0,40,0.00,,SKC,0.00,VWS V14.01,2013-09-02 00:40:00,
2013-09-01 19:44:00,93.5,66.3,29.78,SSE,158,0.0,2.0,41,0.00,,SKC,0.00,VWS V14.01,2013-09-02 00:44:00,
2013-09-01 19:49:00,93.3,66.1,29.77,SSE,158,0.0,4.0,41,0.00,,SKC,0.00,VWS V14.01,2013-09-02 00:49:00,
2013-09-01 19:50:00,93.5,66.3,29.78,SSE,158,2.0,2.0,41,0.00,,SKC,0.00,VWS V14.01,2013-09-02 00:50:00,
2013-09-01 19:54:00,93.0,65.8,29.77,SSE,158,0.0,5.0,41,0.00,,SKC,0.00,VWS V14.01,2013-09-02 00:54:00,
2013-09-01 19:59:00,92.7,65.6,29.77,SSE,158,0.0,4.0,41,0.00,,SKC,0.00,VWS V14.01,2013-09-02 00:59:00,
2013-09-01 20:00:00,93.0,65.8,29.77,SSE,158,1.0,5.0,41,0.00,,SKC,0.00,VWS V14.01,2013-09-02 01:00:00,
2013-09-01 20:04:00,92.4,66.0,29.77,SSE,158,0.0,5.0,42,0.00,,SKC,0.00,VWS V14.01,2013-09-02 01:04:00,
2013-09-01 20:09:00,92.1,65.7,29.78,SSE,158,0.0,2.0,42,0.00,,SKC,0.00,VWS V14.01,2013-09-02 01:09:00,
2013-09-01 20:10:00,92.3,65.9,29.77,SSE,158,0.0,5.0,42,0.00,,SKC,0.00,VWS V14.01,2013-09-02 01:10:00,
2013-09-01 20:14:00,91.8,66.1,29.78,SSE,158,0.0,2.0,43,0.00,,SKC,0.00,VWS V14.01,2013-09-02 01:14:00,
2013-09-01 20:19:00,91.4,65.8,29.78,SSE,158,0.0,1.0,43,0.00,,SKC,0.00,VWS V14.01,2013-09-02 01:19:00,
2013-09-01 20:20:00,91.7,66.1,29.78,SSE,158,0.0,2.0,43,0.00,,SKC,0.00,VWS V14.01,2013-09-02 01:20:00,
2013-09-01 20:24:00,91.2,65.6,29.78,SSE,158,0.0,1.0,43,0.00,,SKC,0.00,VWS V14.01,2013-09-02 01:24:00,
2013-09-01 20:29:00,90.8,65.2,29.78,SSE,158,0.0,0.0,43,0.00,,SKC,0.00,VWS V14.01,2013-09-02 01:29:00,
2013-09-01 20:30:00,91.1,65.5,29.78,SSE,158,0.0,1.0,43,0.00,,SKC,0.00,VWS V14.01,2013-09-02 01:30:00,
2013-09-01 20:34:00,90.5,65.6,29.78,SSE,158,0.0,0.0,44,0.00,,SKC,0.00,VWS V14.01,2013-09-02 01:34:00,
2013-09-01 20:39:00,90.2,65.4,29.78,SSE,158,0.0,0.0,44,0.00,,SKC,0.00,VWS V14.01,2013-09-02 01:39:00,
2013-09-01 20:40:00,90.4,65.5,29.78,SSE,158,0.0,0.0,44,0.00,,SKC,0.00,VWS V14.01,2013-09-02 01:40:00,
2013-09-01 20:44:00,89.8,65.0,29.78,SSE,158,0.0,1.0,44,0.00,,SKC,0.00,VWS V14.01,2013-09-02 01:44:00,
2013-09-01 20:49:00,89.5,65.4,29.78,SSE,158,0.0,0.0,45,0.00,,SKC,0.00,VWS V14.01,2013-09-02 01:49:00,
2013-09-01 20:50:00,89.7,64.9,29.78,SSE,158,0.0,1.0,44,0.00,,SKC,0.00,VWS V14.01,2013-09-02 01:50:00,
2013-09-01 20:54:00,89.2,65.1,29.79,SSE,158,0.0,0.0,45,0.00,,SKC,0.00,VWS V14.01,2013-09-02 01:54:00,
2013-09-01 20:59:00,88.9,64.8,29.79,SSE,158,0.0,0.0,45,0.00,,SKC,0.00,VWS V14.01,2013-09-02 01:59:00,
2013-09-01 21:00:00,89.2,65.1,29.79,SSE,158,0.0,0.0,45,0.00,,SKC,0.00,VWS V14.01,2013-09-02 02:00:00,
2013-09-01 21:04:00,88.6,65.2,29.79,SSE,158,0.0,0.0,46,0.00,,SKC,0.00,VWS V14.01,2013-09-02 02:04:00,
2013-09-01 21:09:00,88.4,65.0,29.79,SSE,158,0.0,0.0,46,0.00,,SKC,0.00,VWS V14.01,2013-09-02 02:09:00,
2013-09-01 21:10:00,88.6,65.2,29.79,SSE,158,0.0,0.0,46,0.00,,SKC,0.00,VWS V14.01,2013-09-02 02:10:00,
2013-09-01 21:14:00,88.2,64.8,29.79,SSE,158,0.0,0.0,46,0.00,,SKC,0.00,VWS V14.01,2013-09-02 02:14:00,
2013-09-01 21:19:00,87.9,65.2,29.79,SSE,158,0.0,0.0,47,0.00,,SKC,0.00,VWS V14.01,2013-09-02 02:19:00,
2013-09-01 21:20:00,88.1,65.3,29.79,SSE,158,0.0,0.0,47,0.00,,SKC,0.00,VWS V14.01,2013-09-02 02:20:00,
2013-09-01 21:24:00,87.7,65.0,29.79,SSE,158,0.0,0.0,47,0.00,,SKC,0.00,VWS V14.01,2013-09-02 02:24:00,
2013-09-01 21:29:00,87.5,65.4,29.80,SSE,158,0.0,0.0,48,0.00,,SKC,0.00,VWS V14.01,2013-09-02 02:29:00,
2013-09-01 21:30:00,87.7,65.0,29.80,SSE,158,0.0,0.0,47,0.00,,SKC,0.00,VWS V14.01,2013-09-02 02:30:00,
2013-09-01 21:34:00,87.3,65.2,29.80,SSE,158,0.0,0.0,48,0.00,,SKC,0.00,VWS V14.01,2013-09-02 02:34:00,
2013-09-01 21:39:00,87.1,65.1,29.80,SSE,158,0.0,0.0,48,0.00,,SKC,0.00,VWS V14.01,2013-09-02 02:39:00,
2013-09-01 21:40:00,87.3,65.2,29.80,SSE,158,0.0,0.0,48,0.00,,SKC,0.00,VWS V14.01,2013-09-02 02:40:00,
2013-09-01 21:44:00,86.9,65.5,29.81,SSE,158,0.0,0.0,49,0.00,,SKC,0.00,VWS V14.01,2013-09-02 02:44:00,
2013-09-01 21:49:00,86.7,65.3,29.81,SSE,158,0.0,0.0,49,0.00,,SKC,0.00,VWS V14.01,2013-09-02 02:49:00,
2013-09-01 21:50:00,86.8,65.4,29.81,SSE,158,0.0,0.0,49,0.00,,SKC,0.00,VWS V14.01,2013-09-02 02:50:00,
2013-09-01 21:54:00,86.5,65.7,29.82,SSE,158,0.0,5.0,50,0.00,,SKC,0.00,VWS V14.01,2013-09-02 02:54:00,
2013-09-01 21:59:00,86.3,66.1,29.82,SSE,158,0.0,0.0,51,0.00,,SKC,0.00,VWS V14.01,2013-09-02 02:59:00,
2013-09-01 22:00:00,86.4,65.6,29.82,SSE,158,0.0,5.0,50,0.00,,SKC,0.00,VWS V14.01,2013-09-02 03:00:00,
2013-09-01 22:04:00,86.2,66.0,29.82,SSE,158,0.0,2.0,51,0.00,,SKC,0.00,VWS V14.01,2013-09-02 03:04:00,
2013-09-01 22:09:00,85.9,66.8,29.82,SSE,158,0.0,0.0,53,0.00,,SKC,0.00,VWS V14.01,2013-09-02 03:09:00,
2013-09-01 22:10:00,86.1,66.4,29.82,SSE,158,0.0,2.0,52,0.00,,SKC,0.00,VWS V14.01,2013-09-02 03:10:00,
2013-09-01 22:14:00,85.7,67.7,29.83,SSE,158,0.0,6.0,55,0.00,,SKC,0.00,VWS V14.01,2013-09-02 03:14:00,
2013-09-01 22:19:00,85.6,68.6,29.83,SSE,158,0.0,4.0,57,0.00,,SKC,0.00,VWS V14.01,2013-09-02 03:19:00,
2013-09-01 22:20:00,85.7,68.2,29.83,SSE,158,0.0,6.0,56,0.00,,SKC,0.00,VWS V14.01,2013-09-02 03:20:00,
2013-09-01 22:24:00,85.5,69.1,29.83,SSE,158,0.0,8.0,58,0.00,,SKC,0.00,VWS V14.01,2013-09-02 03:24:00,
2013-09-01 22:29:00,85.4,69.4,29.84,SSE,158,2.0,2.0,59,0.00,,SKC,0.00,VWS V14.01,2013-09-02 03:29:00,
2013-09-01 22:30:00,85.5,69.1,29.83,SSE,158,0.0,8.0,58,0.00,,SKC,0.00,VWS V14.01,2013-09-02 03:30:00,
2013-09-01 22:34:00,85.3,69.8,29.84,SSE,157,0.0,8.0,60,0.00,,SKC,0.00,VWS V14.01,2013-09-02 03:34:00,
2013-09-01 22:39:00,85.2,70.7,29.84,SSE,158,0.0,8.0,62,0.00,,SKC,0.00,VWS V14.01,2013-09-02 03:39:00,
2013-09-01 22:40:00,85.2,70.2,29.84,SSE,157,0.0,8.0,61,0.00,,SKC,0.00,VWS V14.01,2013-09-02 03:40:00,
2013-09-01 22:44:00,85.0,71.0,29.84,SSE,158,8.0,8.0,63,0.00,,SKC,0.00,VWS V14.01,2013-09-02 03:44:00,
2013-09-01 22:49:00,84.8,71.3,29.84,SSE,158,0.0,8.0,64,0.00,,SKC,0.00,VWS V14.01,2013-09-02 03:49:00,
2013-09-01 22:50:00,85.0,71.0,29.84,SSE,158,0.0,8.0,63,0.00,,SKC,0.00,VWS V14.01,2013-09-02 03:50:00,
2013-09-01 22:54:00,84.7,71.2,29.84,SSE,159,5.0,10.0,64,0.00,,SKC,0.00,VWS V14.01,2013-09-02 03:54:00,
2013-09-01 22:59:00,84.5,71.0,29.84,SSE,159,0.0,8.0,64,0.00,,SKC,0.00,VWS V14.01,2013-09-02 03:59:00,
2013-09-01 23:00:00,84.6,71.1,29.84,SSE,159,0.0,10.0,64,0.00,,SKC,0.00,VWS V14.01,2013-09-02 04:00:00,
2013-09-01 23:01:00,84.4,71.4,29.84,SSE,159,6.0,8.0,65,0.00,,SKC,0.00,VWS V14.01,2013-09-02 04:01:00,
2013-09-01 23:06:00,84.2,71.2,29.84,SSE,160,2.0,5.0,65,0.00,,SKC,0.00,VWS V14.01,2013-09-02 04:06:00,
2013-09-01 23:10:00,84.2,71.2,29.84,SSE,160,1.0,11.0,65,0.00,,SKC,0.00,VWS V14.01,2013-09-02 04:10:00,
2013-09-01 23:11:00,84.0,71.4,29.84,SSE,160,0.0,8.0,66,0.00,,SKC,0.00,VWS V14.01,2013-09-02 04:11:00,
2013-09-01 23:16:00,83.8,71.2,29.84,SSE,159,0.0,2.0,66,0.00,,SKC,0.00,VWS V14.01,2013-09-02 04:16:00,
2013-09-01 23:20:00,83.8,71.2,29.84,SSE,159,0.0,8.0,66,0.00,,SKC,0.00,VWS V14.01,2013-09-02 04:20:00,
2013-09-01 23:21:00,83.7,71.6,29.84,SSE,159,0.0,4.0,67,0.00,,SKC,0.00,VWS V14.01,2013-09-02 04:21:00,
2013-09-01 23:26:00,83.5,71.8,29.84,SSE,159,0.0,7.0,68,0.00,,SKC,0.00,VWS V14.01,2013-09-02 04:26:00,
2013-09-01 23:30:00,83.5,71.8,29.84,SSE,159,4.0,6.0,68,0.00,,SKC,0.00,VWS V14.01,2013-09-02 04:30:00,
2013-09-01 23:31:00,83.3,71.6,29.85,SSE,159,0.0,7.0,68,0.00,,SKC,0.00,VWS V14.01,2013-09-02 04:31:00,
2013-09-01 23:36:00,83.2,72.0,29.85,SSE,159,0.0,6.0,69,0.00,,SKC,0.00,VWS V14.01,2013-09-02 04:36:00,
2013-09-01 23:40:00,83.2,72.0,29.85,SSE,159,0.0,7.0,69,0.00,,SKC,0.00,VWS V14.01,2013-09-02 04:40:00,
2013-09-01 23:41:00,83.0,72.2,29.85,SSE,159,1.0,7.0,70,0.00,,SKC,0.00,VWS V14.01,2013-09-02 04:41:00,
2013-09-01 23:46:00,82.8,72.4,29.85,SSE,159,8.0,9.0,71,0.00,,SKC,0.00,VWS V14.01,2013-09-02 04:46:00,
2013-09-01 23:50:00,82.9,72.5,29.85,SSE,159,2.0,9.0,71,0.00,,SKC,0.00,VWS V14.01,2013-09-02 04:50:00,
2013-09-01 23:51:00,82.7,72.8,29.85,SSE,159,0.0,9.0,72,0.00,,SKC,0.00,VWS V14.01,2013-09-02 04:51:00,
2013-09-01 23:56:00,82.5,73.0,29.85,SSE,159,0.0,2.0,73,0.00,,SKC,0.00,VWS V14.01,2013-09-02 04:56:00,